Regional Weather Roundup
Issued by NWS

Home | Current Version | Previous Version | Graphics & Text | Print | Product List | Glossary On
Versions: 1 2 3 4 5 6 7 8 9 10 11 12 13 14 15 16 17 18 19 20 21 22 23 24 25 26 27 28 29 30 31 32 33 34 35 36 37 38 39 40 41 42 43 44 45 46 47 48 49 50
000
ASUS43 KIND 041609
RWRIN

WEATHER ROUNDUP FOR INDIANA
NATIONAL WEATHER SERVICE INDIANAPOLIS IN
1200 PM EDT FRI SEP 04 2015

NOTE: "FAIR" INDICATES FEW OR NO CLOUDS BELOW 12,000 FEET WITH NO
SIGNIFICANT WEATHER AND/OR OBSTRUCTIONS TO VISIBILITY.

* - STATION DOES NOT REPORT WEATHER SUCH AS PRECIPITATION OR FOG.

+ - STATION NOT QUALITY CONTROLLED BY THE NATIONAL WEATHER SERVICE.
    USE DATA WITH CAUTION...ESPECIALLY DEWPOINT AND RELATIVE
    HUMIDITY OBSERVATIONS.

INZ001>003-010>013-019-020-041700-
NORTHWEST INDIANA

CITY           SKY/WX    TMP DP  RH WIND       PRES   REMARKS
GARY /AIRPORT/ MOSUNNY   79  68  69 VRB3      30.04S
KNOX *+        MOSUNNY   77  68  73 CALM      30.03S
LA PORTE +     PTSUNNY   80  73  77 NW3       30.04S
MICHIGAN CITY+ CLOUDY    75  73  94 N5        30.05R
MONTICELLO +   SUNNY     83  72  69 CALM      30.02S
RENSSELAER +   MOSUNNY   81  72  74 CALM      30.04S
VALPARAISO     PTSUNNY   81  70  69 CALM      30.04S

$$

LMZ046-743>745-041700-
SOUTHERN LAKE MICHIGAN

STATION/POSITION TIME  TEMP    WIND        PRES    WAVE
                       AIR SEA DIR/SP/G            HT
                 (UTC) (F)     (DEG/KT/KT) (MB)    (FT)
BURNS HARBOR     1500   72      20/  5/  6 1017.3R
MICHIGAN CITY    1500   74     320/  4/  4   N/A
5NW MICH CITY    1600   72 74   10/  4/  6   N/A     2

$$

INZ004-005-014>016-021>024-041700-
NORTH CENTRAL INDIANA

CITY           SKY/WX    TMP DP  RH WIND       PRES   REMARKS
ELKHART        MOSUNNY   75  68  78 CALM      30.05S
GOSHEN         SUNNY     77  69  76 N5        30.04R
LOGANSPORT +   PTSUNNY   84  66  54 NW5       30.04F
PERU/GRISSOM   MOSUNNY   85  71  63 VRB5      30.03S
ROCHESTER +    MOSUNNY   86  70  58 W5        30.04S
SOUTH BEND     MOSUNNY   76  67  73 N3        30.05S
WARSAW +       PTSUNNY   79  70  73 W5        30.04S

$$

INZ006>009-017-018-025>027-041700-
NORTHEAST INDIANA

CITY           SKY/WX    TMP DP  RH WIND       PRES   REMARKS
ANGOLA *+      CLOUDY    79  70  73 VRB3      30.05R
AUBURN +       MOSUNNY   81  70  69 W5        30.04S
FORT WAYNE     MOSUNNY   85  72  65 SW9       30.02F THUNDER
HUNTINGTON +   MOSUNNY   82  67  61 SW7       30.03S

$$

INZ028-029-035-036-043>045-051>053-041700-
WEST CENTRAL INDIANA

CITY           SKY/WX    TMP DP  RH WIND       PRES   REMARKS
CRAWFORDSVL +  MOSUNNY   84  63  48 W6        30.05S
GREENCASTLE +  SUNNY     86  64  48 W3        30.06S
LAFAYETTE      SUNNY     88  67  49 W5        30.02S
TERRE HAUTE    SUNNY     88  69  53 W8        30.05R

$$

INZ030>032-037>040-046>048-054>057-064-065-041700-
CENTRAL INDIANA

CITY           SKY/WX    TMP DP  RH WIND       PRES   REMARKS
ANDERSON       SUNNY     86  63  45 CALM      30.06S
COLUMBUS       MOSUNNY   84  68  58 CALM      30.06R
FRANKFORT +    SUNNY     88  71  56 SW5       30.06S
GREENWOOD *+   SUNNY     86  64  48 NW6       30.06S
INDIANAPOLIS   MOSUNNY   88  67  49 W8        30.05R
-EAGLE CREEK   SUNNY     87  68  52 VRB3      30.04S
KOKOMO *+      SUNNY     88  70  55 NW6       30.03F
MARION +       MOSUNNY   84  60  43 SW3       30.04F
MT COMFORT *+  SUNNY     88  59  37 CALM      30.05S
SHELBYVILLE    SUNNY     89  69  51 VRB6      30.04F
ZIONSVILLE +   SUNNY     86  69  55 W3        30.06S

$$

INZ033-034-041-042-049-050-058-059-041700-
EAST CENTRAL INDIANA

CITY           SKY/WX    TMP DP  RH WIND       PRES   REMARKS
MUNCIE         SUNNY     85  70  60 W6        30.05S

$$

INZ060-061-067>069-081>083-085>088-041700-
SOUTHWEST INDIANA

CITY           SKY/WX    TMP DP  RH WIND       PRES   REMARKS
EVANSVILLE     SUNNY     89  68  49 VRB3      30.06R
HUNTINGBURG *+ SUNNY     88  70  55 NE3       30.06R
WASHINGTON +   SUNNY     87  61  41 W3        30.05S

$$

INZ062-063-066-070>080-084-089>092-041700-
SOUTH CENTRAL AND SOUTHEAST INDIANA

CITY           SKY/WX    TMP DP  RH WIND       PRES   REMARKS
BLOOMINGTON    SUNNY     87  69  54 W6        30.07R
MADISON *+     SUNNY     88  64  45 W3        30.08S
NORTH VERNON + SUNNY     86  66  51 CALM      30.07S
SEYMOUR +      SUNNY     90  68  48 NW5       30.05S

$$




USA.gov is the U.S. government's official web portal to all federal, state and local government web resources and services.